Torna al catalogo

CTS DEB

ARRAY COVER

AttivoGEO
NORAD 39688·DEBRIS·🇨🇦 Canada

Lanciato Jan 17, 1976 da Cape Canaveral Space Force Station

Loading…

TLE

AggiornatoSource: Space-Track

Epoca: Sep 14, 2026, 12:02 UTC

1 39688U 76004E   26257.50183899 -.00000179  00000-0  00000-0 0  9994
2 39688   3.0070 264.3180 0046623 209.7685 327.3259  1.00310198 43672

Traccia CTS DEB in tempo reale con AllMySat

Download on the App Store